Location: Unspecified
(58.9933°N, 5.6375°E)
Time: 05:03:26
(UTC+01:00)

Cosmos 2058 - Pass Details

Date: 25 January 2018
Orbit: 563 x 585 km, 82.5° (Epoch: 23 February)

Event Time Altitude Azimuth Distance (km) Brightness Sun altitude
Exits shadow 07:29:57 14° 264° (W) 1,691 4.7 -11.2°
Drops below altitude 10° 07:31:15 10° 247° (WSW) 1,906 5.1 -11.0°
Sets 07:34:17 0° 223° (SW) 2,795 6.2 -10.6°
